WA4FG Weather Reports


Display with metric or nautical units.
time (UTC)temp
F
wind
direction
speed
MPH
gust
MPH
rain 1hr
in
rain 24hr
in
rain mn
in
humidity
%
barometer
mb
20260903021432 81 312 0.0 0.0 0.00 0.00 0.00 82 1016.3
20260903020427 81 312 0.0 0.0 0.00 0.00 0.00 82 1016.2
20260903015922 82 312 0.0 0.0 0.00 0.00 0.00 81 1016.3
20260903015422 82 312 0.0 0.0 0.00 0.00 0.00 81 1016.2
20260903014923 82 312 0.0 0.0 0.00 0.00 0.00 81 1016.2
20260903014355 82 312 0.0 0.0 0.00 0.00 0.00 81 1016.2
20260903013848 82 312 0.0 0.0 0.00 0.00 0.00 80 1015.9
20260903013344 83 312 0.0 0.0 0.00 0.00 0.00 81 1015.8
20260903012854 83 312 0.0 0.0 0.00 0.00 0.00 82 1015.7
20260903012350 83 312 0.0 0.0 0.00 0.00 0.00 81 1015.7
20260903011835 83 312 0.0 0.0 0.00 0.00 0.00 81 1015.7
20260903011324 83 312 0.0 0.0 0.00 0.00 0.00 81 1015.7
20260903010827 84 312 0.0 0.0 0.00 0.00 0.00 80 1015.5
20260903005228 84 312 0.0 0.0 0.00 0.00 0.00 77 1015.5
20260903004727 85 312 0.0 0.0 0.00 0.00 0.00 76 1015.5
20260903004212 85 312 0.0 0.0 0.00 0.00 0.00 76 1015.5
20260903003714 85 312 0.0 0.0 0.00 0.00 0.00 75 1015.4
20260903002712 86 312 0.0 0.0 0.00 0.00 0.00 76 1015.4
20260903001708 87 312 0.0 0.0 0.00 0.00 0.00 72 1015.4
20260903000635 87 312 0.0 0.0 0.00 0.00 0.00 70 1015.4
20260903000136 88 312 0.0 0.0 0.00 0.00 0.00 68 1015.5
20260902235608 88 312 0.0 0.0 0.00 0.00 0.00 67 1015.5
20260902234551 89 312 0.0 0.0 0.00 0.00 0.00 66 1015.4
20260902234035 89 312 0.0 0.0 0.00 0.00 0.00 66 1015.3
20260902233525 90 312 0.0 0.0 0.00 0.00 0.00 65 1015.4
20260902232958 90 312 0.0 0.0 0.00 0.00 0.00 63 1015.3
20260902231930 90 312 0.0 0.0 0.00 0.00 0.00 64 1015.2
20260902231414 90 312 0.0 0.0 0.00 0.00 0.00 63 1015.2
20260902230858 91 312 0.0 0.0 0.00 0.00 0.00 61 1015.1
20260902230348 91 312 0.0 4.0 0.00 0.00 0.00 62 1015.1
20260902225844 91 312 0.0 4.0 0.00 0.00 0.00 63 1015.0
20260902225320 91 225 0.0 0.0 0.00 0.00 0.00 63 1015.1
20260902224755 91 225 0.0 0.0 0.00 0.00 0.00 61 1015.1
20260902224256 92 225 0.0 0.0 0.00 0.00 0.00 60 1015.2
20260902223754 92 225 0.0 0.0 0.00 0.00 0.00 60 1015.1
20260902223252 92 225 0.0 0.0 0.00 0.00 0.00 59 1015.2
20260902222753 93 225 0.0 1.0 0.00 0.00 0.00 58 1015.3
20260902222248 93 225 0.0 1.0 0.00 0.00 0.00 55 1015.4
20260902221745 94 225 0.0 4.0 0.00 0.00 0.00 54 1015.4
20260902220708 95 217 0.0 4.0 0.00 0.00 0.00 50 1015.4
20260902215702 95 234 0.0 4.0 0.00 0.00 0.00 48 1015.5
20260902215159 95 210 0.0 2.0 0.00 0.00 0.00 47 1015.4
20260902214631 95 211 0.0 4.0 0.00 0.00 0.00 49 1015.4
20260902214128 95 201 0.0 4.0 0.00 0.00 0.00 47 1015.3
20260902213603 95 202 0.0 1.0 0.00 0.00 0.00 47 1015.2
20260902213053 96 149 0.0 1.0 0.00 0.00 0.00 48 1015.3
20260902212549 96 306 0.0 0.0 0.00 0.00 0.00 47 1015.3
20260902212035 96 306 0.0 1.0 0.00 0.00 0.00 45 1015.4
20260902211456 96 308 0.0 1.0 0.00 0.00 0.00 44 1015.4
20260902210928 96 197 0.0 1.0 0.00 0.00 0.00 46 1015.4
20260902210434 96 241 0.0 3.0 0.00 0.00 0.00 47 1015.5
20260902205927 96 227 0.0 4.0 0.00 0.00 0.00 50 1015.5
20260902205431 96 163 0.0 2.0 0.00 0.00 0.00 45 1015.6
20260902204403 96 244 0.0 2.0 0.00 0.00 0.00 46 1015.5
20260902203402 96 261 0.0 1.0 0.00 0.00 0.00 48 1015.6
20260902202845 96 261 0.0 1.0 0.00 0.00 0.00 49 1015.7
20260902202339 97 236 0.0 2.0 0.00 0.00 0.00 47 1015.7
20260902201826 97 232 0.0 1.0 0.00 0.00 0.00 46 1015.8
20260902201300 97 250 0.0 0.0 0.00 0.00 0.00 47 1015.8
20260902200744 97 250 0.0 1.0 0.00 0.00 0.00 45 1015.9
20260902200243 97 251 0.0 1.0 0.00 0.00 0.00 45 1015.9
20260902195725 97 230 0.0 1.0 0.00 0.00 0.00 46 1016.1
20260902195145 97 134 0.0 0.0 0.00 0.00 0.00 48 1016.1
20260902194645 97 101 0.0 0.0 0.00 0.00 0.00 45 1016.3
20260902194120 97 101 0.0 0.0 0.00 0.00 0.00 45 1016.4
20260902193115 98 90 0.0 0.0 0.00 0.00 0.00 48 1016.6
20260902192615 98 90 0.0 0.0 0.00 0.00 0.00 45 1016.7
20260902192109 98 90 0.0 0.0 0.00 0.00 0.00 46 1016.7
20260902191606 98 207 0.0 2.0 0.00 0.00 0.00 45 1016.8
20260902190605 98 174 0.0 4.0 0.00 0.00 0.00 46 1016.9
20260902190108 98 174 0.0 4.0 0.00 0.00 0.00 45 1017.0
20260902185045 98 167 0.0 1.0 0.00 0.00 0.00 46 1017.2
20260902184545 98 167 0.0 1.0 0.00 0.00 0.00 46 1017.2
20260902184011 98 186 0.0 0.0 0.00 0.00 0.00 49 1017.3
20260902183450 98 187 0.0 0.0 0.00 0.00 0.00 46 1017.3
20260902182924 98 267 0.0 0.0 0.00 0.00 0.00 46 1017.4
20260902182356 97 267 0.0 1.0 0.00 0.00 0.00 47 1017.4
20260902181846 97 167 0.0 1.0 0.00 0.00 0.00 50 1017.6
20260902181342 96 169 0.0 4.0 0.00 0.00 0.00 51 1017.6
20260902180818 95 169 0.0 4.0 0.00 0.00 0.00 49 1017.7
20260902180255 95 313 0.0 0.0 0.00 0.00 0.00 57 1017.7
20260902175733 94 211 0.0 0.0 0.00 0.00 0.00 52 1017.8
20260902175209 94 211 0.0 0.0 0.00 0.00 0.00 56 1017.8
20260902174657 94 211 0.0 0.0 0.00 0.00 0.00 52 1017.9
20260902174149 95 211 0.0 0.0 0.00 0.00 0.00 52 1017.9
20260902173702 96 178 0.0 0.0 0.00 0.00 0.00 51 1017.9
20260902173118 97 179 0.0 0.0 0.00 0.00 0.00 50 1018.0
20260902172614 98 179 0.0 0.0 0.00 0.00 0.00 52 1018.0
20260902172114 97 181 0.0 0.0 0.00 0.00 0.00 50 1018.1
20260902171550 97 178 0.0 1.0 0.00 0.00 0.00 50 1018.2
20260902171025 97 177 0.0 1.0 0.00 0.00 0.00 50 1018.3
20260902170533 97 175 0.0 4.0 0.00 0.00 0.00 51 1018.4
20260902165955 96 203 0.0 4.0 0.00 0.00 0.00 50 1018.5
20260902165431 96 107 0.0 0.0 0.00 0.00 0.00 51 1018.6
20260902164933 96 170 0.0 0.0 0.00 0.00 0.00 51 1018.6
20260902163847 96 147 0.0 0.0 0.00 0.00 0.00 51 1018.8
20260902163332 95 144 0.0 0.0 0.00 0.00 0.00 50 1018.9
20260902162825 95 209 0.0 0.0 0.00 0.00 0.00 54 1018.9
20260902162324 95 219 0.0 0.0 0.00 0.00 0.00 52 1018.9
20260902161831 95 215 0.0 0.0 0.00 0.00 0.00 52 1019.0
20260902160800 94 219 0.0 0.0 0.00 0.00 0.00 54 1019.1
20260902160258 94 140 0.0 0.0 0.00 0.00 0.00 52 1019.1
20260902155238 93 132 0.0 0.0 0.00 0.00 0.00 52 1019.2
20260902154723 93 132 0.0 0.0 0.00 0.00 0.00 64 1019.2
20260902154229 93 164 0.0 0.0 0.00 0.00 0.00 57 1019.2
20260902153657 93 164 0.0 0.0 0.00 0.00 0.00 56 1019.2
20260902152625 92 164 0.0 0.0 0.00 0.00 0.00 56 1019.3
20260902151619 91 219 0.0 0.0 0.00 0.00 0.00 70 1019.2
20260902151110 91 219 0.0 0.0 0.00 0.00 0.00 68 1019.3
20260902150544 91 219 0.0 0.0 0.00 0.00 0.00 69 1019.3
20260902150019 90 219 0.0 0.0 0.00 0.00 0.00 66 1019.2
20260902145459 89 219 0.0 0.0 0.00 0.00 0.00 67 1019.2
20260902144926 89 219 0.0 0.0 0.00 0.00 0.00 72 1019.2
20260902144400 88 219 0.0 0.0 0.00 0.00 0.00 73 1019.2
20260902143835 87 220 0.0 0.0 0.00 0.00 0.00 75 1019.1
20260902143037 85 220 0.0 0.0 0.00 0.00 0.00 78 1019.1
20260902142536 84 220 0.0 0.0 0.00 0.00 0.00 80 1019.1
20260902142009 83 220 0.0 0.0 0.00 0.00 0.00 80 1019.2
20260902141441 82 220 0.0 0.0 0.00 0.00 0.00 85 1019.2
20260902140927 82 220 0.0 0.0 0.00 0.00 0.00 85 1019.2
20260902140419 81 220 0.0 0.0 0.00 0.00 0.00 85 1019.3
20260902135854 81 220 0.0 1.0 0.00 0.00 0.00 86 1019.3
20260902135409 80 220 0.0 1.0 0.00 0.00 0.00 83 1019.2
20260902134857 79 220 0.0 0.0 0.00 0.00 0.00 90 1019.3
20260902134324 78 220 0.0 0.0 0.00 0.00 0.00 93 1019.2
20260902133816 78 220 0.0 0.0 0.00 0.00 0.00 97 1019.3
20260902133249 77 220 0.0 0.0 0.00 0.00 0.00 97 1019.3
20260902132759 77 220 0.0 0.0 0.00 0.00 0.00 98 1019.3
20260902132219 76 220 0.0 0.0 0.00 0.00 0.00 99 1019.3
20260902131716 76 220 0.0 0.0 0.00 0.00 0.00 100 1019.2
20260902131157 76 220 0.0 0.0 0.00 0.00 0.00 100 1019.2
20260902130655 75 220 0.0 0.0 0.00 0.00 0.00 100 1019.2
20260902130152 75 220 0.0 0.0 0.00 0.00 0.00 100 1019.2
20260902125626 75 220 0.0 0.0 0.00 0.00 0.00 100 1019.1
20260902125059 75 220 0.0 0.0 0.00 0.00 0.00 100 1019.2
20260902124532 75 220 0.0 0.0 0.00 0.00 0.00 100 1019.1
20260902124026 74 220 0.0 0.0 0.00 0.00 0.00 100 1019.1
20260902123516 74 220 0.0 0.0 0.00 0.00 0.00 100 1019.2
20260902123014 74 220 0.0 0.0 0.00 0.00 0.00 100 1019.2
20260902122450 74 220 0.0 0.0 0.00 0.00 0.00 99 1019.1
20260902121922 74 220 0.0 0.0 0.00 0.00 0.00 99 1019.1
20260902120334 74 220 0.0 0.0 0.00 0.00 0.00 99 1019.1
20260902115830 74 220 0.0 0.0 0.00 0.00 0.00 99 1019.0
20260902115327 74 220 0.0 0.0 0.00 0.00 0.00 99 1019.0
20260902114827 74 220 0.0 0.0 0.00 0.00 0.00 99 1018.8
20260902114252 74 220 0.0 0.0 0.00 0.00 0.00 99 1018.8
20260902113751 74 220 0.0 0.0 0.00 0.00 0.00 99 1018.7
20260902113231 74 220 0.0 0.0 0.00 0.00 0.00 99 1018.7
20260902112729 74 220 0.0 0.0 0.00 0.00 0.00 99 1018.7
20260902112221 74 220 0.0 0.0 0.00 0.00 0.00 99 1018.6
20260902111153 74 220 0.0 0.0 0.00 0.00 0.00 99 1018.6
20260902110643 74 220 0.0 0.0 0.00 0.00 0.00 99 1018.5
20260902110108 74 220 0.0 0.0 0.00 0.00 0.00 98 1018.5
20260902105540 74 220 0.0 0.0 0.00 0.00 0.00 98 1018.4
20260902104504 74 220 0.0 0.0 0.00 0.00 0.00 98 1018.3
20260902104004 74 220 0.0 0.0 0.00 0.00 0.00 98 1018.3
20260902103444 74 220 0.0 0.0 0.00 0.00 0.00 98 1018.3
20260902102931 74 220 0.0 0.0 0.00 0.00 0.00 98 1018.3
20260902102415 74 220 0.0 0.0 0.00 0.00 0.00 98 1018.2
20260902101914 74 220 0.0 0.0 0.00 0.00 0.00 98 1018.2
20260902101411 74 220 0.0 0.0 0.00 0.00 0.00 98 1018.2
20260902100913 74 220 0.0 0.0 0.00 0.00 0.00 98 1018.2
20260902095814 74 220 0.0 0.0 0.00 0.00 0.00 98 1018.1
20260902095254 74 220 0.0 0.0 0.00 0.00 0.00 98 1018.1
20260902094740 74 220 0.0 0.0 0.00 0.00 0.00 98 1018.0
20260902093738 74 220 0.0 0.0 0.00 0.00 0.00 97 1017.9
20260902093223 75 220 0.0 0.0 0.00 0.00 0.00 97 1017.8
20260902092720 75 220 0.0 0.0 0.00 0.00 0.00 97 1017.8
20260902092220 75 220 0.0 0.0 0.00 0.00 0.00 97 1017.7
20260902091731 75 220 0.0 0.0 0.00 0.00 0.00 97 1017.7
20260902091210 75 220 0.0 0.0 0.00 0.00 0.00 97 1017.6
20260902090710 75 220 0.0 0.0 0.00 0.00 0.00 97 1017.6
20260902090207 75 220 0.0 0.0 0.00 0.00 0.00 97 1017.6
20260902085655 75 220 0.0 0.0 0.00 0.00 0.00 97 1017.5
20260902085152 75 220 0.0 0.0 0.00 0.00 0.00 97 1017.5
20260902084650 75 220 0.0 0.0 0.00 0.00 0.00 97 1017.4
20260902084124 75 220 0.0 0.0 0.00 0.00 0.00 97 1017.4
20260902083620 75 220 0.0 0.0 0.00 0.00 0.00 97 1017.4
20260902083054 75 220 0.0 0.0 0.00 0.00 0.00 97 1017.4
20260902082550 75 220 0.0 0.0 0.00 0.00 0.00 97 1017.3
20260902082041 75 220 0.0 0.0 0.00 0.00 0.00 96 1017.3
20260902081524 75 220 0.0 0.0 0.00 0.00 0.00 96 1017.2
20260902081011 75 220 0.0 0.0 0.00 0.00 0.00 96 1017.2
20260902080004 75 220 0.0 0.0 0.00 0.00 0.00 96 1017.2
20260902075507 75 220 0.0 0.0 0.00 0.00 0.00 96 1017.1
20260902075006 75 220 0.0 0.0 0.00 0.00 0.00 96 1017.2
20260902074439 75 220 0.0 0.0 0.00 0.00 0.00 96 1017.3
20260902073936 75 220 0.0 0.0 0.00 0.00 0.00 95 1017.2
20260902073433 75 220 0.0 0.0 0.00 0.00 0.00 95 1017.2
20260902072408 76 220 0.0 0.0 0.00 0.00 0.00 95 1017.2
20260902071843 76 220 0.0 0.0 0.00 0.00 0.00 95 1017.2
20260902071339 76 220 0.0 0.0 0.00 0.00 0.00 95 1017.2
20260902070820 76 220 0.0 0.0 0.00 0.00 0.00 94 1017.2
20260902070320 76 220 0.0 0.0 0.00 0.00 0.00 94 1017.2
20260902065818 76 220 0.0 0.0 0.00 0.00 0.00 94 1017.3
20260902064226 76 220 0.0 0.0 0.00 0.00 0.00 94 1017.3
20260902063723 76 220 0.0 0.0 0.00 0.00 0.00 94 1017.3
20260902063157 76 220 0.0 0.0 0.00 0.00 0.00 94 1017.3
20260902062634 76 220 0.0 0.0 0.00 0.00 0.00 94 1017.3
20260902062135 76 220 0.0 0.0 0.00 0.00 0.00 94 1017.2
20260902061107 76 220 0.0 0.0 0.00 0.00 0.00 94 1017.2
20260902060108 76 220 0.0 0.0 0.00 0.00 0.00 93 1017.3
20260902055543 76 220 0.0 0.0 0.00 0.00 0.00 93 1017.3
20260902055045 76 220 0.0 0.0 0.00 0.00 0.00 93 1017.3
20260902053447 77 220 0.0 0.0 0.00 0.00 0.00 93 1017.4
20260902052945 77 220 0.0 0.0 0.00 0.00 0.00 93 1017.5
20260902051428 77 220 0.0 0.0 0.00 0.00 0.00 91 1017.4
20260902050358 77 220 0.0 0.0 0.00 0.00 0.00 91 1017.4
20260902045855 77 220 0.0 0.0 0.00 0.00 0.00 91 1017.4
20260902045330 77 220 0.0 0.0 0.00 0.00 0.00 91 1017.4
20260902044820 77 220 0.0 0.0 0.00 0.00 0.00 90 1017.5
20260902043752 77 220 0.0 0.0 0.00 0.00 0.00 90 1017.5
20260902043223 77 220 0.0 0.0 0.00 0.00 0.00 89 1017.6
20260902042705 78 220 0.0 0.0 0.00 0.00 0.00 89 1017.6
20260902042204 78 220 0.0 0.0 0.00 0.00 0.00 89 1017.6
20260902041135 78 220 0.0 0.0 0.00 0.00 0.00 89 1017.6
20260902040631 78 220 0.0 0.0 0.00 0.00 0.00 88 1017.6
20260902035101 78 220 0.0 0.0 0.00 0.00 0.00 88 1017.7
20260902034559 78 220 0.0 0.0 0.00 0.00 0.00 87 1017.7
20260902034059 78 220 0.0 0.0 0.00 0.00 0.00 88 1017.7
20260902033557 78 220 0.0 0.0 0.00 0.00 0.00 87 1017.7
20260902033058 79 220 0.0 0.0 0.00 0.00 0.00 87 1017.7
20260902032556 79 220 0.0 0.0 0.00 0.00 0.00 87 1017.7
20260902032053 79 220 0.0 0.0 0.00 0.00 0.00 87 1017.7
20260902030952 79 220 0.0 0.0 0.00 0.00 0.00 86 1017.7
20260902030449 79 220 0.0 0.0 0.00 0.00 0.00 86 1017.7
20260902025947 79 220 0.0 0.0 0.00 0.00 0.00 86 1017.7
20260902025443 79 220 0.0 0.0 0.00 0.00 0.00 85 1017.7
20260902024941 79 220 0.0 0.0 0.00 0.00 0.00 85 1017.7
20260902024419 80 220 0.0 0.0 0.00 0.00 0.00 84 1017.6
20260902023912 80 220 0.0 0.0 0.00 0.00 0.00 83 1017.6
20260902023409 80 220 0.0 0.0 0.00 0.00 0.00 83 1017.6
20260902022905 80 220 0.0 0.0 0.00 0.00 0.00 82 1017.6
20260902022402 80 220 0.0 0.0 0.00 0.00 0.00 82 1017.6
20260902021836 80 220 0.0 0.0 0.00 0.00 0.00 82 1017.4